Regional Weather Roundup
Issued by NWS Wakefield, VA

Home | Current Version | Previous Version | Text Only | Print | Product List | Glossary On
Versions: 1 2 3 4 5 6 7 8 9 10 11 12 13 14 15 16 17 18 19 20 21 22 23 24 25 26 27 28 29 30 31 32 33 34 35 36 37 38 39 40 41 42 43 44 45 46 47 48 49 50
412
ASUS41 KAKQ 170115
RWRAKQ

REGIONAL WEATHER ROUNDUP
NATIONAL WEATHER SERVICE WAKEFIELD VA
800 PM EST SAT DEC 16 2017

Note: "fair" indicates few or no clouds below 12,000 feet with no
significant weather and/or obstructions to visibility. * = Denotes
station may not report precipitation (e.g., rain,snow,etc.),
thunder or fog.

VAZ042-051-052>054-056-170200-
NORTHERN VIRGINIA

CITY           SKY/WX    TMP DP  RH WIND       PRES   REMARKS
WASH NATIONAL  CLEAR     40  25  55 S6        30.16R
DULLES         PTCLDY    34  24  67 S5        30.14S
FORT BELVOIR   CLEAR     31  24  74 CALM      30.16R
QUANTICO       CLEAR     42  28  57 SW9       30.18R
FREDERICKSBRG* CLEAR     40  26  57 S8        30.16R
STAFFORD*      CLEAR     40  25  55 S5        30.20R
WARRENTON      CLEAR     37  21  51 S3        30.14R
CULPEPER*      CLEAR     36  23  59 S5        30.15S
MANASSAS*      CLEAR     27  22  81 CALM      30.16R
LEESBURG*      CLEAR     34  27  75 CALM      30.15R
WINCHESTER     CLEAR     32  23  69 NW3       30.12R
FRONT ROYAL*   CLEAR     41  25  52 MISG      30.11R
LURAY*         CLEAR     32  27  80 SW3       30.12R
$$

VAZ048-049-060>072-079>083-170200-
CENTRAL AND SOUTH CENTRAL VIRGINIA

CITY           SKY/WX    TMP DP  RH WIND       PRES   REMARKS
RICHMOND       CLEAR     39  24  55 S7        30.20R
CHESTERFIELD*  NOT AVBL
PETERSBURG*    CLEAR     28  23  80 SW5       30.22R
HANOVER        CLEAR     38  24  57 S6        30.20R
TAPPAHANNOCK*  CLEAR     38  24  57 S5        30.19S
QUINTON*       FAIR      32  25  76 S6        30.21R
CHARLOTTSVILLE CLEAR     40  25  55 S9        30.14R
GORDONSVILLE*  CLEAR     33  25  72 CALM      30.15S
ORANGE*        CLEAR     37  25  60 S5        30.15R
LOUISA*        CLEAR     38  23  53 S7        30.20S
BUMPASS*       FAIR      38  22  53 S3        30.16S
FARMVILLE*     CLEAR     39  28  63 S7        30.18S
CREWE*         FAIR      31  25  77 CALM      30.20R
FORT PICKETT*  NOT AVBL
CHASE CITY*    FAIR      34  24  68 CALM      30.21S
CLARKSVILLE*   FAIR      37  27  65 SW3       30.22R
SOUTH HILL*    CLEAR     33  27  76 SW6       30.27S
LAWRENCEVILLE* FAIR      34  25  69 CALM      30.22R
EMPORIA*       CLEAR     32  25  74 MISG      30.25R
$$

VAZ088>098-170200-
SOUTHEAST VIRGINIA

CITY           SKY/WX    TMP DP  RH WIND       PRES   REMARKS
NORFOLK        CLEAR     35  24  64 S8        30.23R
VIRGINIA BEACH CLEAR     38  22  52 SW8       30.23R
NORFOLK NAVAL  CLEAR     40  24  53 S6        30.24R
WEST POINT*    CLEAR    N/A N/A N/A S3        30.23R
SALUDA*        FAIR      38  26  60 S5        30.21R
NEWPORT NEWS   CLEAR     39  26  59 SW9       30.23R
LANGLEY AFB    CLEAR     40  26  56 SW6       30.22R
FORT EUSTIS    CLEAR     39  28  63 S3        30.20R
WILLIAMSBURG*  CLEAR     39  28  65 CALM      30.23S
HR EXEC AP*    FAIR      28  25  88 SW3       30.25R
FRANKLIN*      CLEAR     36  24  62 S3        30.25R
US460-WAKEFLD  CLEAR     32  26  78 CALM      30.23R
$$

VAZ020-022-025-037-045-170200-
WEST CENTRAL AND SOUTHWEST VIRGINIA

CITY           SKY/WX    TMP DP  RH WIND       PRES   REMARKS
STAUNTON*      CLEAR     37  23  56 SW6       30.15R
WAYNESBORO*    CLEAR     40  23  50 SW5       30.13R
HOT SPRINGS VA CLEAR     34  20  55 W21       30.09R WCI  23
LYNCHBURG      CLEAR     36  24  62 S3        30.18R
DANVILLE       CLEAR     34  24  67 CALM      30.22R
SOUTH BOSTON*  FAIR      39  22  50 SW5       30.22R
MARTINSVILLE   CLEAR     30  22  71 CALM      30.23R
ROANOKE        CLEAR     43  23  45 W6        30.19R
BLACKSBURG     CLOUDY    35  24  63 W3        30.20R
DUBLIN*        CLOUDY    32  24  71 SW6       30.19R
MARION*        CLOUDY    34  23  63 W10       30.22R
HILLSVILLE*    CLOUDY    35  23  60 NW6       30.16S
RICHLANDS*     FAIR      37  23  58 SW9       30.19R
WISE*          CLOUDY    34  28  80 CALM      30.20R
ABINGDON*      CLOUDY    34  26  72 CALM      30.23R
$$

MDZ021>025-VAZ099-100-170200-
SOUTHERN MARYLAND AND THE DELMARVA PENINSULA

CITY           SKY/WX    TMP DP  RH WIND       PRES   REMARKS
PATUXENT RIVER CLEAR     41  24  51 SW9       30.18R
BAY BRIDGE APT CLEAR     41  27  56 S5        30.16S
LEONARDTOWN    CLEAR     37  27  65 SW3       30.19R
DOVER          CLEAR     35  28  74 S6        30.16R
GEORGETOWN     CLEAR     32  24  72 SW7       30.18R
EASTON         PTCLDY    37  25  60 S5        30.20R
CAMBRIDGE      CLEAR     36  27  69 CALM      30.18R
SALISBURY      CLEAR     34  28  79 S5        30.19R
OCEAN CITY     CLEAR     37  26  64 W7        30.20R
WALLOPS ISLAND CLEAR     39  27  62 SW9       30.21R
ACCOMACK*      CLEAR     38  28  67 S6        30.22R
$$

NCZ012>017-030>032-170200-
NORTH CENTRAL AND EASTERN NORTH CAROLINA

CITY           SKY/WX    TMP DP  RH WIND       PRES   REMARKS
ROANOKE RAPIDS FAIR      36  28  75 SW3       30.24R
RALEIGH        CLOUDY    38  24  57 W3        30.25R
ELIZABETH CITY CLEAR     38  29  70 SW6       30.26R
AHOSKIE*       CLEAR     31  26  80 CALM      30.25R
EDENTON*       NOT AVBL
CURRITUCK*     CLEAR     36  28  74 SW3       30.26R
KILL DEVIL HLS CLEAR     38  29  69 CALM      30.24S
MANTEO         CLEAR     39  31  71 CALM      30.26S
CAPE HATTERAS  CLEAR     35  30  82 W3        30.27R
TARBORO*       NOT AVBL
GOLDSBORO      CLOUDY    37  27  65 CALM      30.24R
WASHINGTON     CLOUDY    37  27  69 CALM      30.27R
GREENVILLE     CLOUDY    36  27  69 CALM      30.27R
NEW BERN       PTCLDY    34  29  82 S3        30.28R
WILMINGTON     PTCLDY    42  32  67 SW5       30.28S
$$

VAZ048-170200-
ELSEWHERE

CITY           SKY/WX    TMP DP  RH WIND       PRES   REMARKS
HARRISBURG PA  MOCLDY    34  27  75 CALM      30.13R
BALTIMORE      CLEAR     34  23  64 CALM      30.15R
ANNAPOLIS      CLEAR     38  24  57 CALM      30.16R
ANDREWS AFB    CLEAR     37  22  55 S7        30.15R
PHILADELPHIA   MOCLDY    39  26  59 SW12      30.15R
HENDERSON NC   CLOUDY    32  22  68 SW7       30.22S
GREENSBORO     CLOUDY    39  24  55 SW5       30.21R
ROCKY MOUNT    CLEAR     34  29  82 S3        30.26R
$$

VAZ100-170200-
MARINE

STATION/POSITION TIME  TEMP    WIND        PRES    WAVE   SWELL
                       AIR SEA DIR/SP/G            HT/PER HT/PER
                 (UTC) (F)     (DEG/KT/KT) (MB)    (FT/S) (FT/S)
BRANDYWINE LGT   0036   42     230/ 21/ 23 1021.6R
CAPE MAY NJ      0042   42 41  240/ 14/ 18 1021.0R
LEWES DE         0036   39 41  230/  3/  8 1021.6R
15NM E FENWICK I 0050   46 51  230/ 19/ 23 1022.1R   3/ 4
OCEAN-CITY-INLET 0036   40 44  260/  9/ 10 1022.6R
WACHAPREAGUE VA  0036   39 40  220/  5/  6 1023.0R
THOMAS POINT MD  0000   43 44  200/  9/ 10   N/A
GOOSES REEF MD   0050   44     210/ 12/ 12 1022.0R
COVE POINT MD    0036   42     230/ 13/ 14 1022.2R
SOLOMONS ISLAND  0036   42 45  220/  8/ 10 1021.5R
BISHOPS HEAD MD  0036   40 37  190/  7/  8 1022.2R
PINEY POINT MD   0036          230/  6/  8   N/A
POTOMAC MD       0050   43     210/ 10/ 12 1021.7R
CAMBRIDGE MD     0036   37 39              1022.3R
LEWISETTA VA     0036   42 39  230/  9/ 10 1022.0R
RAPPAHANNOCK LGT 0036          210/ 16/ 18 1023.1R
STINGRAY PT      0050   43     260/ 12/ 14 1023.0R
YORK RVR RNG VA  0036   44     230/ 12/ 13 1023.5R
YORKTOWN VA      0036   42 46  210/  6/  8 1022.9R
JAMESTOWN VA     0050          210/  4/  6   N/A
DOMINION TERM VA 0036   43     220/  7/  8 1023.8R
KIPTOPEKE VA     0036      44  220/ 13/ 15   N/A
CAPE HENRY VA    0036   41     200/  5/  7   N/A
WILLOUBY STN VA  0036          220/ 12/ 14 1023.3R
S CRANEY ISL VA  0036   42     200/  4/  6 1023.6R
CAPE HENRY BUOY  0030      52                N/A     2/ 3
1ST LANDING BUOY 0050   44     220/ 12/ 14 1023.6R
CAPE CHARLES BUO 0051      51                N/A     2/ 3
64NM E OF VA BCH 0050   48 59  260/ 19/ 25 1023.7R   3/ 4   2/ 7
DUCK PIER NC     0036   42 53  230/  2/  4 1023.9R
44100 DUCK FRF   0045      54                N/A     2/ 8
44056 DUCK FRF   0100      54                N/A     1/10
OREGON INLET NC  0036   44 48  230/  9/ 11 1024.4R
HATTERAS NC      0036   44 52  280/  6/  9 1024.5S
DIAMOND SHLS NC  0050   51 73  280/ 14/ 17 1024.8R   3/ 7   2/ 7
CAPE LOOKOUT NC  0000          260/  8/ 11 1025.2R
$$




USA.gov is the U.S. government's official web portal to all federal, state and local government web resources and services.